Starlink 4408

operational
NORAD ID: 53206 Int'l Des: 2022-084 Owner: SPXS Country: US Constellation: starlink
LEOCIRCULARRETROGRADESSO

Starlink 4408について

説明を読み込み中...

リアルタイム位置

3D地球を読み込み中...

次回通過

高度履歴

Altitude vs Time

uPlot chart will show altitude changes over time

軌道要素

1 53206U 22084T 26071.17963667 .00000797 00000-0 59422-4 0 9992
2 53206 97.6033 133.6599 0001035 102.5293 257.6050 15.05651777199753
Epoch: Mar 12, 2026 • Age: 12 hours

現在のステータス

高度 578.6 km
速度 7.57 km/s
衛星直下点 -82.42°S, 120.35°W
打ち上げ日 Jul 22, 2022
運用期間 3.6 years
タイプ internet

技術仕様

分類 Payload
質量 297.00 kg
乾燥質量 275.00 kg
総質量 297.00 kg
長さ 0.20 m
直径 2.80 m
スパン 9.00 m
形状 Box + pan
製造者 SPXS
バスタイプ Starlink
フェーズステータス In Orbit
所有者/国 SPXS/US

大規模コンステレーション

Loading constellations...